Volver al catálogo

STARLINK-35527

ActivoComunicacionesVLEO
NORAD 66092·PAYLOAD·🇺🇸 United States

Lanzado Oct 19, 2025 desde Vandenberg Space Force Base

Loading…

Próximos Pases (próximas 24 horas)

TLE

ActualizadoSource: CelesTrak SupGP

Época: Sep 15, 2026, 04:18 UTC

1 66092C 25236G   26258.17965278 -.00002458  00000+0 -72608-4 0  2584
2 66092  53.1584 300.2389 0001272  85.4254 336.0734 15.34399761    11

Sigue STARLINK-35527 en tiempo real con AllMySat

Download on the App Store